This demonstration page uses our WeatherBlox Daily Observations layout. Learn more.

Hourly Observations for October 29, 2015

Temp ( °F °C ) Dew Point ( °F °C ) Humidity (%) Winds ( mph kmh ) Pressure ( in mb ) Visibility ( mi km ) Precip ( " mm )
12:15 am 00:15 Clear 33 0.5 20 -6.5 60 60 NW 6 9 30 1016 10 16.0934 0 0
12:35 am 00:35 Clear 32 -0.1 21 -6.2 64 64 WNW 3 6 30 1016 10 16.0934 0 0
12:55 am 00:55 Clear 31 -0.5 21 -6.2 66 66 NW 7 11 30 1016 10 16.0934 0 0
1:15 am 01:15 Clear 32 -0.2 20 -6.4 63 63 WNW 5 7 30 1016 10 16.0934 0 0
1:35 am 01:35 Clear 31 -0.5 21 -6.2 66 66 W 6 9 30 1016 10 16.0934 0 0
1:55 am 01:55 Clear 32 0.1 21 -6.3 62 62 WNW 6 9 30 1016 10 16.0934 0 0
2:15 am 02:15 Clear 31 -0.5 20 -6.4 65 65 WNW 3 6 30 1016 10 16.0934 0 0
2:35 am 02:35 Clear 28 -2 20 -6.5 72 72 WNW 7 11 30.06 1018 10 16.0934 0 0
2:55 am 02:55 Clear 28 -2.2 21 -6.2 74 74 NW 7 11 30.06 1018 10 16.0934 0 0
3:15 am 03:15 Clear 31 -0.6 22 -5.3 71 71 NW 8 13 30.06 1018 10 16.0934 0 0
3:35 am 03:35 Clear 31 -0.8 22 -5.6 70 70 WNW 6 9 30.06 1018 10 16.0934 0 0
3:55 am 03:55 Clear 30 -1.1 22 -5.6 72 72 NW 8 13 30.09 1019 10 16.0934 0 0
4:15 am 04:15 Clear 30 -1 22 -5.5 72 72 NW 6 9 30.09 1019 10 16.0934 0 0
4:35 am 04:35 Clear 30 -0.9 22 -5.6 71 71 NW 8 13 30.06 1018 10 16.0934 0 0
4:55 am 04:55 Clear 30 -1.2 22 -5.4 73 73 WNW 9 15 30.06 1018 10 16.0934 0 0
5:15 am 05:15 Clear 29 -1.4 22 -5.5 74 74 NW 8 13 30.09 1019 10 16.0934 0 0
5:35 am 05:35 Clear 28 -2 22 -5.6 77 77 WNW 8 13 30.09 1019 10 16.0934 0 0
5:55 am 05:55 Clear 27 -2.6 22 -5.6 80 80 WNW 7 11 30.09 1019 10 16.0934 0 0
6:15 am 06:15 Clear 27 -3 22 -5.7 82 82 W 7 11 30.09 1019 10 16.0934 0 0
6:35 am 06:35 Clear 28 -2.5 22 -5.5 80 80 WNW 7 11 30.09 1019 10 16.0934 0 0
6:55 am 06:55 Clear 27 -2.6 22 -5.6 80 80 WNW 8 13 30.09 1019 10 16.0934 0 0
7:15 am 07:15 Clear 26 -3.1 22 -5.8 82 82 WNW 6 9 30.12 1020 10 16.0934 0 0
7:35 am 07:35 Clear 25 -4.1 20 -6.5 84 84 NW 6 9 30.15 1021 10 16.0934 0 0
7:55 am 07:55 Clear 24 -4.3 21 -6.3 86 86 WNW 5 7 30.15 1021 10 16.0934 0 0
8:15 am 08:15 Sunny 24 -4.7 20 -6.6 87 87 WNW 6 9 30.15 1021 10 16.0934 0 0
8:35 am 08:35 Sunny 25 -4.1 21 -6.2 86 86 W 6 9 30.18 1022 10 16.0934 0 0
8:55 am 08:55 Sunny 27 -3 22 -5.5 83 83 WNW 6 9 30.15 1021 10 16.0934 0 0
9:15 am 09:15 Sunny 29 -1.8 23 -4.8 80 80 WNW 7 11 30.15 1021 10 16.0934 0 0
9:35 am 09:35 Sunny 32 -0.1 25 -4 75 75 NW 9 15 30.12 1020 10 16.0934 0 0
9:55 am 09:55 Sunny 33 0.7 25 -4.1 71 71 NW 12 19 30.12 1020 10 16.0934 0 0
10:15 am 10:15 Sunny 35 1.4 24 -4.2 67 67 NW 9 15 30.15 1021 10 16.0934 0 0
10:35 am 10:35 Sunny 36 2.1 24 -4.2 63 63 NNW 12 19 30.15 1021 10 16.0934 0 0
10:55 am 10:55 Sunny 37 3 25 -4 60 60 NW 10 17 30.15 1021 10 16.0934 0 0
11:15 am 11:15 Sunny 38 3.5 24 -4.5 56 56 NNW 13 20 30.12 1020 10 16.0934 0 0
11:35 am 11:35 Sunny 40 4.2 24 -4.2 55 55 NNW 10 17 30.12 1020 10 16.0934 0 0
11:55 am 11:55 Sunny 41 4.9 25 -4 53 53 NW 10 17 30.12 1020 10 16.0934 0 0
12:15 pm 12:15 Sunny 41 5.2 25 -4 52 52 NNW 7 11 30.12 1020 10 16.0934 0 0
12:35 pm 12:35 Sunny 42 5.6 25 -3.9 51 51 WNW 8 13 30.12 1020 10 16.0934 0 0
12:55 pm 12:55 Sunny 44 6.7 26 -3.6 48 48 WNW 8 13 30.06 1018 10 16.0934 0 0
1:15 pm 13:15 Sunny 44 6.8 24 -4.3 45 45 NNW 7 11 30.06 1018 10 16.0934 0 0
1:35 pm 13:35 Sunny 45 7.4 24 -4.5 43 43 NW 9 15 30.06 1018 10 16.0934 0 0
1:55 pm 13:55 Sunny 46 7.9 24 -4.3 42 42 NW 5 7 30.06 1018 10 16.0934 0 0
2:15 pm 14:15 Sunny 47 8.3 23 -4.8 39 39 WNW 7 11 30.03 1017 10 16.0934 0 0
2:35 pm 14:35 Sunny 47 8.5 22 -5.3 38 38 NNW 5 7 30.03 1017 10 16.0934 0 0
2:55 pm 14:55 Sunny 48 9.1 22 -5.8 35 35 NW 5 7 30.03 1017 10 16.0934 0 0
3:15 pm 15:15 Sunny 49 9.3 22 -5.5 35 35 NNW 3 6 29.97 1015 10 16.0934 0 0
3:35 pm 15:35 Sunny 49 9.6 22 -5.6 34 34 N 3 6 29.97 1015 10 16.0934 0 0
3:55 pm 15:55 Sunny 49 9.4 22 -5.8 34 34 Calm 29.97 1015 10 16.0934 0 0
4:15 pm 16:15 Sunny 49 9.3 21 -6 34 34 Calm 29.97 1015 10 16.0934 0 0
4:35 pm 16:35 Sunny 50 10.1 22 -5.4 33 33 Calm 29.97 1015 10 16.0934 0 0
4:55 pm 16:55 Sunny 49 9.7 21 -6 33 33 Calm 29.97 1015 10 16.0934 0 0
5:15 pm 17:15 Sunny 48 9.1 21 -6 34 34 Calm 29.97 1015 10 16.0934 0 0
5:35 pm 17:35 Sunny 49 9.5 21 -5.9 34 34 Calm 29.97 1015 10 16.0934 0 0
5:55 pm 17:55 Sunny 48 9 21 -5.9 35 35 Calm 29.97 1015 10 16.0934 0 0
6:15 pm 18:15 Sunny 46 7.6 24 -4.3 43 43 SE 5 7 30 1016 10 16.0934 0 0
6:35 pm 18:35 Sunny 43 6.2 25 -3.9 49 49 E 5 7 30 1016 10 16.0934 0 0
6:55 pm 18:55 Clear 42 5.5 24 -4.2 50 50 E 6 9 29.97 1015 10 16.0934 0 0
7:15 pm 19:15 Clear 40 4.5 25 -4.1 54 54 E 6 9 30.03 1017 10 16.0934 0 0
7:35 pm 19:35 Clear 40 4.3 26 -3.4 58 58 ESE 5 7 30.03 1017 10 16.0934 0 0
7:55 pm 19:55 Clear 38 3.2 26 -3.5 62 62 ESE 6 9 30.03 1017 10 16.0934 0 0
8:15 pm 20:15 Clear 38 3.1 25 -3.7 61 61 ESE 6 9 30.03 1017 10 16.0934 0 0
8:35 pm 20:35 Clear 37 3 24 -4.2 60 60 SE 6 9 30.03 1017 10 16.0934 0 0
8:55 pm 20:55 Clear 34 1.2 24 -4.4 67 67 SE 7 11 30.06 1018 10 16.0934 0 0
9:15 pm 21:15 Clear 34 1.1 24 -4.5 67 67 SE 6 9 30.06 1018 10 16.0934 0 0
9:35 pm 21:35 Clear 34 1.2 24 -4.5 66 66 SSE 6 9 30.06 1018 10 16.0934 0 0
9:55 pm 21:55 Clear 35 1.7 23 -4.8 62 62 SSE 6 9 30.06 1018 10 16.0934 0 0
10:15 pm 22:15 Clear 35 1.5 23 -4.8 63 63 SSE 5 7 30.06 1018 10 16.0934 0 0
10:35 pm 22:35 Clear 32 0 23 -5.2 68 68 SE 5 7 30.06 1018 10 16.0934 0 0
10:55 pm 22:55 Clear 33 0.6 23 -5 66 66 SSE 6 9 30.06 1018 10 16.0934 0 0
11:15 pm 23:15 Clear 35 1.5 23 -5 62 62 S 7 11 30.09 1019 10 16.0934 0 0
11:35 pm 23:35 Clear 33 0.5 22 -5.4 65 65 SSE 6 9 30.09 1019 10 16.0934 0 0
11:55 pm 23:55 Clear 33 0.4 23 -5.1 67 67 SSE 6 9 30.09 1019 10 16.0934 0 0

Powered by AerisWeather